Time,TemperatureF,DewpointF,PressureIn,WindDirection,WindDirectionDegrees,WindSpeedMPH,WindSpeedGustMPH,Humidity,HourlyPrecipIn,Conditions,Clouds,dailyrainin,SoftwareType,DateUTC
2013-06-25 00:03:00,68.5,43.9,29.51,ENE,59,0.0,0.0,41,0.00,,---,0.00,VWS V14.00,2013-06-25 06:03:00,
2013-06-25 00:08:00,68.4,44.4,29.52,ENE,59,0.0,0.0,42,0.00,,---,0.00,VWS V14.00,2013-06-25 06:08:00,
2013-06-25 00:13:00,68.3,43.7,29.52,ENE,59,0.0,0.0,41,0.00,,---,0.00,VWS V14.00,2013-06-25 06:13:00,
2013-06-25 00:18:00,67.9,44.0,29.53,ENE,59,0.0,3.0,42,0.00,,---,0.00,VWS V14.00,2013-06-25 06:18:00,
2013-06-25 00:23:00,67.7,43.8,29.53,ENE,59,0.0,0.0,42,0.00,,---,0.00,VWS V14.00,2013-06-25 06:23:00,
2013-06-25 00:28:00,67.6,43.7,29.53,ENE,59,0.0,0.0,42,0.00,,---,0.00,VWS V14.00,2013-06-25 06:28:00,
2013-06-25 00:33:00,67.5,44.2,29.54,ENE,59,0.0,0.0,43,0.00,,---,0.00,VWS V14.00,2013-06-25 06:33:00,
2013-06-25 00:38:00,67.2,44.0,29.54,ENE,59,0.0,0.0,43,0.00,,---,0.00,VWS V14.00,2013-06-25 06:38:00,
2013-06-25 00:43:00,66.9,44.3,29.54,ENE,59,0.0,0.0,44,0.00,,---,0.00,VWS V14.00,2013-06-25 06:43:00,
2013-06-25 00:48:00,66.7,44.1,29.54,ENE,59,0.0,0.0,44,0.00,,---,0.00,VWS V14.00,2013-06-25 06:48:00,
2013-06-25 00:54:00,66.3,44.3,29.56,ENE,59,0.0,0.0,45,0.00,,---,0.00,VWS V14.00,2013-06-25 06:54:00,
2013-06-25 00:59:00,66.2,44.2,29.55,ENE,59,0.0,0.0,45,0.00,,---,0.00,VWS V14.00,2013-06-25 06:59:00,
2013-06-25 01:04:00,66.1,44.2,29.57,ENE,59,0.0,0.0,45,0.00,,---,0.00,VWS V14.00,2013-06-25 07:04:00,
2013-06-25 01:10:00,66.0,44.1,29.57,ENE,59,0.0,0.0,45,0.00,,---,0.00,VWS V14.00,2013-06-25 07:10:00,
2013-06-25 01:16:00,65.8,44.5,29.57,ENE,59,0.0,0.0,46,0.00,,---,0.00,VWS V14.00,2013-06-25 07:16:00,
2013-06-25 01:22:00,65.7,43.8,29.57,ENE,59,0.0,0.0,45,0.00,,---,0.00,VWS V14.00,2013-06-25 07:22:00,
2013-06-25 01:27:00,65.6,43.7,29.57,ENE,59,0.0,0.0,45,0.00,,---,0.00,VWS V14.00,2013-06-25 07:27:00,
2013-06-25 01:33:00,65.5,43.6,29.57,ENE,59,0.0,0.0,45,0.00,,---,0.00,VWS V14.00,2013-06-25 07:33:00,
2013-06-25 01:38:00,65.5,43.6,29.57,ENE,59,0.0,0.0,45,0.00,,---,0.00,VWS V14.00,2013-06-25 07:38:00,
2013-06-25 01:43:00,65.4,43.5,29.57,ENE,59,0.0,0.0,45,0.00,,---,0.00,VWS V14.00,2013-06-25 07:43:00,
2013-06-25 01:48:00,65.5,42.4,29.58,ENE,59,0.0,1.0,43,0.00,,---,0.00,VWS V14.00,2013-06-25 07:48:00,
2013-06-25 01:54:00,65.6,41.9,29.58,ENE,59,0.0,0.0,42,0.00,,---,0.00,VWS V14.00,2013-06-25 07:54:00,
2013-06-25 01:59:00,66.1,41.1,29.58,ENE,59,0.0,0.0,40,0.00,,---,0.00,VWS V14.00,2013-06-25 07:59:00,
2013-06-25 02:04:00,66.4,40.7,29.54,SW,222,0.0,1.0,39,0.00,,---,0.00,VWS V14.00,2013-06-25 08:04:00,
2013-06-25 02:09:00,66.7,39.6,29.54,SW,225,0.0,0.0,37,0.00,,---,0.00,VWS V14.00,2013-06-25 08:09:00,
2013-06-25 02:14:00,66.9,40.5,29.54,SW,225,0.0,0.0,38,0.00,,---,0.00,VWS V14.00,2013-06-25 08:14:00,
2013-06-25 02:19:00,66.8,41.1,29.54,SW,225,0.0,0.0,39,0.00,,---,0.00,VWS V14.00,2013-06-25 08:19:00,
2013-06-25 02:24:00,66.8,41.1,29.54,SW,225,0.0,0.0,39,0.00,,---,0.00,VWS V14.00,2013-06-25 08:24:00,
2013-06-25 02:29:00,66.8,41.1,29.54,SW,225,0.0,0.0,39,0.00,,---,0.00,VWS V14.00,2013-06-25 08:29:00,
2013-06-25 02:34:00,66.8,40.4,29.54,SW,225,0.0,0.0,38,0.00,,---,0.00,VWS V14.00,2013-06-25 08:34:00,
2013-06-25 02:39:00,66.8,40.4,29.54,SW,225,0.0,0.0,38,0.00,,---,0.00,VWS V14.00,2013-06-25 08:39:00,
2013-06-25 02:44:00,66.8,41.1,29.54,SW,225,0.0,0.0,39,0.00,,---,0.00,VWS V14.00,2013-06-25 08:44:00,
2013-06-25 02:49:00,66.7,41.0,29.54,SW,225,0.0,0.0,39,0.00,,---,0.00,VWS V14.00,2013-06-25 08:49:00,
2013-06-25 02:54:00,66.7,41.6,29.54,SW,225,0.0,0.0,40,0.00,,---,0.00,VWS V14.00,2013-06-25 08:54:00,
2013-06-25 02:59:00,66.5,41.5,29.54,SW,225,0.0,0.0,40,0.00,,---,0.00,VWS V14.00,2013-06-25 08:59:00,
2013-06-25 03:04:00,66.2,41.2,29.54,SW,225,0.0,0.0,40,0.00,,---,0.00,VWS V14.00,2013-06-25 09:04:00,
2013-06-25 03:09:00,66.0,41.7,29.54,SW,225,0.0,0.0,41,0.00,,---,0.00,VWS V14.00,2013-06-25 09:09:00,
2013-06-25 03:14:00,65.7,41.4,29.54,SW,225,0.0,0.0,41,0.00,,---,0.00,VWS V14.00,2013-06-25 09:14:00,
2013-06-25 03:19:00,65.6,41.3,29.54,SW,225,0.0,0.0,41,0.00,,---,0.00,VWS V14.00,2013-06-25 09:19:00,
2013-06-25 03:24:00,65.4,41.7,29.55,SW,225,0.0,0.0,42,0.00,,---,0.00,VWS V14.00,2013-06-25 09:24:00,
2013-06-25 03:29:00,65.2,41.5,29.55,SW,225,0.0,0.0,42,0.00,,---,0.00,VWS V14.00,2013-06-25 09:29:00,
2013-06-25 03:34:00,65.1,41.5,29.55,SW,225,0.0,0.0,42,0.00,,---,0.00,VWS V14.00,2013-06-25 09:34:00,
2013-06-25 03:39:00,64.9,41.3,29.56,SW,225,0.0,0.0,42,0.00,,---,0.00,VWS V14.00,2013-06-25 09:39:00,
2013-06-25 03:44:00,64.8,41.8,29.56,SW,225,0.0,0.0,43,0.00,,---,0.00,VWS V14.00,2013-06-25 09:44:00,
2013-06-25 03:49:00,64.5,41.5,29.56,SW,225,0.0,0.0,43,0.00,,---,0.00,VWS V14.00,2013-06-25 09:49:00,
2013-06-25 03:54:00,64.2,41.8,29.56,SW,225,0.0,0.0,44,0.00,,---,0.00,VWS V14.00,2013-06-25 09:54:00,
2013-06-25 03:59:00,63.9,41.6,29.56,SW,225,0.0,0.0,44,0.00,,---,0.00,VWS V14.00,2013-06-25 09:59:00,
2013-06-25 04:04:00,63.4,41.7,29.56,SW,225,0.0,0.0,45,0.00,,---,0.00,VWS V14.00,2013-06-25 10:04:00,
2013-06-25 04:09:00,62.8,40.6,29.58,SW,225,0.0,0.0,44,0.00,,---,0.00,VWS V14.00,2013-06-25 10:09:00,
2013-06-25 04:14:00,62.4,40.8,29.58,SW,225,0.0,0.0,45,0.00,,---,0.00,VWS V14.00,2013-06-25 10:14:00,
2013-06-25 04:19:00,62.1,40.5,29.58,SW,225,0.0,0.0,45,0.00,,---,0.00,VWS V14.00,2013-06-25 10:19:00,
2013-06-25 04:24:00,61.9,40.3,29.58,SW,225,0.0,0.0,45,0.00,,---,0.00,VWS V14.00,2013-06-25 10:24:00,
2013-06-25 04:29:00,61.7,40.2,29.58,SW,225,0.0,0.0,45,0.00,,---,0.00,VWS V14.00,2013-06-25 10:29:00,
2013-06-25 04:34:00,61.5,40.0,29.58,SW,225,0.0,0.0,45,0.00,,---,0.00,VWS V14.00,2013-06-25 10:34:00,
2013-06-25 04:39:00,61.3,40.4,29.59,SW,225,0.0,0.0,46,0.00,,---,0.00,VWS V14.00,2013-06-25 10:39:00,
2013-06-25 04:44:00,61.0,37.8,29.59,SW,225,0.0,0.0,42,0.00,,---,0.00,VWS V14.00,2013-06-25 10:44:00,
2013-06-25 04:49:00,61.0,37.2,29.59,SW,225,0.0,0.0,41,0.00,,---,0.00,VWS V14.00,2013-06-25 10:49:00,
2013-06-25 04:54:00,60.9,37.7,29.59,SW,225,0.0,0.0,42,0.00,,---,0.00,VWS V14.00,2013-06-25 10:54:00,
2013-06-25 04:59:00,60.8,38.2,29.59,SW,225,0.0,0.0,43,0.00,,---,0.00,VWS V14.00,2013-06-25 10:59:00,
2013-06-25 05:04:00,60.7,38.1,29.60,SW,225,0.0,0.0,43,0.00,,---,0.00,VWS V14.00,2013-06-25 11:04:00,
2013-06-25 05:09:00,60.5,38.5,29.60,SW,225,0.0,0.0,44,0.00,,---,0.00,VWS V14.00,2013-06-25 11:09:00,
2013-06-25 05:14:00,60.3,38.3,29.62,SW,225,0.0,1.0,44,0.00,,---,0.00,VWS V14.00,2013-06-25 11:14:00,
2013-06-25 05:19:00,60.0,38.0,29.61,SW,224,0.0,2.0,44,0.00,,---,0.00,VWS V14.00,2013-06-25 11:19:00,
2013-06-25 05:24:00,59.9,34.9,29.62,South,187,0.0,2.0,39,0.00,,---,0.00,VWS V14.00,2013-06-25 11:24:00,
2013-06-25 05:29:00,60.0,35.6,29.62,South,187,2.0,4.0,40,0.00,,---,0.00,VWS V14.00,2013-06-25 11:29:00,
2013-06-25 05:34:00,60.5,35.4,29.62,South,187,2.0,2.0,39,0.00,,---,0.00,VWS V14.00,2013-06-25 11:34:00,
2013-06-25 05:39:00,60.9,35.1,29.61,SSW,206,0.0,1.0,38,0.00,,---,0.00,VWS V14.00,2013-06-25 11:39:00,
2013-06-25 05:44:00,60.8,35.7,29.61,SSW,206,0.0,0.0,39,0.00,,---,0.00,VWS V14.00,2013-06-25 11:44:00,
2013-06-25 05:49:00,60.8,35.1,29.61,SSW,206,0.0,0.0,38,0.00,,---,0.00,VWS V14.00,2013-06-25 11:49:00,
2013-06-25 05:54:00,60.9,35.8,29.61,SSW,206,0.0,0.0,39,0.00,,---,0.00,VWS V14.00,2013-06-25 11:54:00,
2013-06-25 05:59:00,60.8,35.7,29.61,SSW,206,0.0,0.0,39,0.00,,---,0.00,VWS V14.00,2013-06-25 11:59:00,
2013-06-25 06:04:00,61.0,34.6,29.62,SSW,202,0.0,3.0,37,0.00,,---,0.00,VWS V14.00,2013-06-25 12:04:00,
2013-06-25 06:09:00,61.2,36.1,29.63,SSW,202,1.0,2.0,39,0.00,,---,0.00,VWS V14.00,2013-06-25 12:09:00,
2013-06-25 06:14:00,61.3,34.1,29.63,SW,224,0.0,3.0,36,0.00,,---,0.00,VWS V14.00,2013-06-25 12:14:00,
2013-06-25 06:19:00,61.6,34.4,29.62,SW,218,0.0,2.0,36,0.00,,---,0.00,VWS V14.00,2013-06-25 12:19:00,
2013-06-25 06:24:00,61.8,35.3,29.62,SW,217,0.0,1.0,37,0.00,,---,0.00,VWS V14.00,2013-06-25 12:24:00,
2013-06-25 06:29:00,61.9,36.0,29.62,SW,217,0.0,0.0,38,0.00,,---,0.00,VWS V14.00,2013-06-25 12:29:00,
2013-06-25 06:34:00,61.8,37.2,29.62,SW,217,2.0,2.0,40,0.00,,---,0.00,VWS V14.00,2013-06-25 12:34:00,
2013-06-25 06:39:00,61.9,36.0,29.62,SW,217,0.0,1.0,38,0.00,,---,0.00,VWS V14.00,2013-06-25 12:39:00,
2013-06-25 06:44:00,62.0,36.1,29.63,SW,217,0.0,0.0,38,0.00,,---,0.00,VWS V14.00,2013-06-25 12:44:00,
2013-06-25 06:49:00,62.1,36.2,29.63,SW,217,0.0,1.0,38,0.00,,---,0.00,VWS V14.00,2013-06-25 12:49:00,
2013-06-25 06:54:00,62.2,37.0,29.63,SW,217,0.0,0.0,39,0.00,,---,0.00,VWS V14.00,2013-06-25 12:54:00,
2013-06-25 06:59:00,62.6,38.0,29.63,SW,217,0.0,0.0,40,0.00,,---,0.00,VWS V14.00,2013-06-25 12:59:00,
2013-06-25 07:04:00,63.3,40.5,29.66,SW,217,0.0,0.0,43,0.00,,---,0.00,VWS V14.00,2013-06-25 13:04:00,
2013-06-25 07:09:00,63.9,38.5,29.66,SW,217,0.0,0.0,39,0.00,,---,0.00,VWS V14.00,2013-06-25 13:09:00,
2013-06-25 07:14:00,64.7,37.2,29.66,SSW,209,0.0,2.0,36,0.00,,---,0.00,VWS V14.00,2013-06-25 13:14:00,
2013-06-25 07:19:00,65.4,37.1,29.66,SSW,213,0.0,1.0,35,0.00,,---,0.00,VWS V14.00,2013-06-25 13:19:00,
2013-06-25 07:24:00,65.9,37.5,29.64,SW,214,2.0,2.0,35,0.00,,---,0.00,VWS V14.00,2013-06-25 13:24:00,
2013-06-25 07:29:00,66.5,36.5,29.65,SSW,210,0.0,2.0,33,0.00,,---,0.00,VWS V14.00,2013-06-25 13:29:00,
2013-06-25 07:34:00,66.9,38.4,29.65,SSW,192,0.0,2.0,35,0.00,,---,0.00,VWS V14.00,2013-06-25 13:34:00,
2013-06-25 07:39:00,66.8,37.6,29.65,SSW,192,0.0,1.0,34,0.00,,---,0.00,VWS V14.00,2013-06-25 13:39:00,
2013-06-25 07:44:00,67.4,37.3,29.65,SSW,193,1.0,1.0,33,0.00,,---,0.00,VWS V14.00,2013-06-25 13:44:00,
2013-06-25 07:49:00,68.4,40.4,29.65,SSW,193,0.0,1.0,36,0.00,,---,0.00,VWS V14.00,2013-06-25 13:49:00,
2013-06-25 07:54:00,69.2,41.1,29.65,NNE,13,0.0,5.0,36,0.00,,---,0.00,VWS V14.00,2013-06-25 13:54:00,
2013-06-25 07:59:00,69.2,41.1,29.66,NNE,14,0.0,2.0,36,0.00,,---,0.00,VWS V14.00,2013-06-25 13:59:00,
2013-06-25 08:04:00,68.9,41.6,29.67,NNE,14,0.0,1.0,37,0.00,,---,0.00,VWS V14.00,2013-06-25 14:04:00,
2013-06-25 08:09:00,67.7,39.8,29.68,NNE,14,0.0,0.0,36,0.00,,---,0.00,VWS V14.00,2013-06-25 14:09:00,
2013-06-25 08:14:00,67.3,41.5,29.68,NNE,14,0.0,1.0,39,0.00,,---,0.00,VWS V14.00,2013-06-25 14:14:00,
2013-06-25 08:19:00,67.8,40.6,29.68,NNE,14,0.0,0.0,37,0.00,,---,0.00,VWS V14.00,2013-06-25 14:19:00,
2013-06-25 08:24:00,68.3,44.3,29.68,NNE,14,0.0,0.0,42,0.00,,---,0.00,VWS V14.00,2013-06-25 14:24:00,
2013-06-25 08:29:00,69.8,43.1,29.67,NNE,14,0.0,0.0,38,0.00,,---,0.00,VWS V14.00,2013-06-25 14:29:00,
2013-06-25 08:34:00,70.1,44.7,29.67,NNE,14,0.0,0.0,40,0.00,,---,0.00,VWS V14.00,2013-06-25 14:34:00,
2013-06-25 08:39:00,69.1,42.5,29.68,NNE,14,0.0,0.0,38,0.00,,---,0.00,VWS V14.00,2013-06-25 14:39:00,
2013-06-25 08:44:00,69.2,42.5,29.68,NNE,14,0.0,1.0,38,0.00,,---,0.00,VWS V14.00,2013-06-25 14:44:00,
2013-06-25 08:49:00,69.7,43.0,29.68,WSW,257,0.0,0.0,38,0.00,,---,0.00,VWS V14.00,2013-06-25 14:49:00,
2013-06-25 08:54:00,70.0,44.6,29.67,WSW,257,0.0,0.0,40,0.00,,---,0.00,VWS V14.00,2013-06-25 14:54:00,
2013-06-25 08:59:00,71.0,41.2,29.67,WSW,257,0.0,3.0,34,0.00,,---,0.00,VWS V14.00,2013-06-25 14:59:00,
2013-06-25 09:05:00,71.6,43.3,29.69,WSW,257,0.0,2.0,36,0.00,,---,0.00,VWS V14.00,2013-06-25 15:05:00,
2013-06-25 09:10:00,72.5,41.8,29.68,WSW,257,0.0,0.0,33,0.00,,---,0.00,VWS V14.00,2013-06-25 15:10:00,
2013-06-25 09:16:00,73.7,45.8,29.68,WSW,257,0.0,1.0,37,0.00,,---,0.00,VWS V14.00,2013-06-25 15:16:00,
2013-06-25 09:21:00,75.6,45.3,29.67,WSW,257,1.0,1.0,34,0.00,,---,0.00,VWS V14.00,2013-06-25 15:21:00,
2013-06-25 09:26:00,75.8,43.9,29.66,North,355,0.0,1.0,32,0.00,,---,0.00,VWS V14.00,2013-06-25 15:26:00,
2013-06-25 09:32:00,75.8,45.5,29.66,North,355,0.0,0.0,34,0.00,,---,0.00,VWS V14.00,2013-06-25 15:32:00,
2013-06-25 09:37:00,75.6,46.0,29.66,SSE,157,0.0,0.0,35,0.00,,---,0.00,VWS V14.00,2013-06-25 15:37:00,
2013-06-25 09:43:00,74.9,42.3,29.67,SSE,157,0.0,0.0,31,0.00,,---,0.00,VWS V14.00,2013-06-25 15:43:00,
2013-06-25 09:48:00,76.0,43.2,29.66,SSE,156,0.0,0.0,31,0.00,,---,0.00,VWS V14.00,2013-06-25 15:48:00,
2013-06-25 09:53:00,76.0,43.2,29.66,SSE,155,0.0,1.0,31,0.00,,---,0.00,VWS V14.00,2013-06-25 15:53:00,
2013-06-25 09:58:00,75.8,41.3,29.66,SSE,150,0.0,1.0,29,0.00,,---,0.00,VWS V14.00,2013-06-25 15:58:00,
2013-06-25 10:04:00,75.6,43.7,29.67,SE,129,0.0,0.0,32,0.00,,---,0.00,VWS V14.00,2013-06-25 16:04:00,
2013-06-25 10:09:00,74.8,43.0,29.68,SE,129,0.0,1.0,32,0.00,,---,0.00,VWS V14.00,2013-06-25 16:09:00,
2013-06-25 10:14:00,75.3,45.0,29.67,SE,129,0.0,0.0,34,0.00,,---,0.00,VWS V14.00,2013-06-25 16:14:00,
2013-06-25 10:19:00,77.3,45.2,29.66,SE,129,0.0,0.0,32,0.00,,---,0.00,VWS V14.00,2013-06-25 16:19:00,
2013-06-25 10:24:00,78.1,44.2,29.66,SE,129,0.0,0.0,30,0.00,,---,0.00,VWS V14.00,2013-06-25 16:24:00,
2013-06-25 10:29:00,78.4,45.3,29.66,SE,131,0.0,1.0,31,0.00,,---,0.00,VWS V14.00,2013-06-25 16:29:00,
2013-06-25 10:34:00,78.9,42.1,29.66,SE,131,0.0,0.0,27,0.00,,---,0.00,VWS V14.00,2013-06-25 16:34:00,
2013-06-25 10:39:00,79.6,43.7,29.66,SE,131,0.0,0.0,28,0.00,,---,0.00,VWS V14.00,2013-06-25 16:39:00,
2013-06-25 10:44:00,80.4,42.4,29.65,ESE,121,1.0,2.0,26,0.00,,---,0.00,VWS V14.00,2013-06-25 16:44:00,
2013-06-25 10:49:00,81.2,45.0,29.65,ESE,116,0.0,1.0,28,0.00,,---,0.00,VWS V14.00,2013-06-25 16:49:00,
2013-06-25 10:54:00,80.7,43.7,29.65,ESE,115,0.0,1.0,27,0.00,,---,0.00,VWS V14.00,2013-06-25 16:54:00,
2013-06-25 10:59:00,80.0,41.1,29.66,SE,137,1.0,1.0,25,0.00,,---,0.00,VWS V14.00,2013-06-25 16:59:00,
2013-06-25 11:04:00,81.3,41.1,29.65,SE,137,0.0,0.0,24,0.00,,---,0.00,VWS V14.00,2013-06-25 17:04:00,
2013-06-25 11:09:00,81.3,40.0,29.65,South,186,2.0,4.0,23,0.00,,---,0.00,VWS V14.00,2013-06-25 17:09:00,
2013-06-25 11:14:00,82.5,43.2,29.64,South,185,0.0,0.0,25,0.00,,---,0.00,VWS V14.00,2013-06-25 17:14:00,
2013-06-25 11:19:00,84.0,39.9,29.64,NNE,29,0.0,3.0,21,0.00,,---,0.00,VWS V14.00,2013-06-25 17:19:00,
2013-06-25 11:25:00,83.7,40.9,29.64,ESE,119,0.0,2.0,22,0.00,,---,0.00,VWS V14.00,2013-06-25 17:25:00,
2013-06-25 11:30:00,83.6,38.3,29.64,North,355,4.0,5.0,20,0.00,,---,0.00,VWS V14.00,2013-06-25 17:30:00,
2013-06-25 11:35:00,83.8,38.5,29.64,NNE,19,0.0,2.0,20,0.00,,---,0.00,VWS V14.00,2013-06-25 17:35:00,
2013-06-25 11:40:00,83.9,39.8,29.64,North,360,0.0,4.0,21,0.00,,---,0.00,VWS V14.00,2013-06-25 17:40:00,
2013-06-25 11:45:00,83.7,39.7,29.64,NE,53,1.0,2.0,21,0.00,,---,0.00,VWS V14.00,2013-06-25 17:45:00,
2013-06-25 11:50:00,84.6,42.8,29.62,NE,50,0.0,1.0,23,0.00,,---,0.00,VWS V14.00,2013-06-25 17:50:00,
2013-06-25 11:56:00,85.3,42.2,29.62,ENE,57,0.0,2.0,22,0.00,,---,0.00,VWS V14.00,2013-06-25 17:56:00,
2013-06-25 12:01:00,85.5,41.2,29.62,NE,48,0.0,2.0,21,0.00,,---,0.00,VWS V14.00,2013-06-25 18:01:00,
2013-06-25 12:06:00,85.4,43.4,29.63,NNE,17,1.0,2.0,23,0.00,,---,0.00,VWS V14.00,2013-06-25 18:06:00,
2013-06-25 12:11:00,84.7,37.9,29.65,NE,34,2.0,3.0,19,0.00,,---,0.00,VWS V14.00,2013-06-25 18:11:00,
2013-06-25 12:16:00,84.8,38.0,29.65,NNE,28,0.0,1.0,19,0.00,,---,0.00,VWS V14.00,2013-06-25 18:16:00,
2013-06-25 12:21:00,85.1,39.6,29.64,SSW,206,0.0,3.0,20,0.00,,---,0.00,VWS V14.00,2013-06-25 18:21:00,
2013-06-25 12:26:00,84.8,44.0,29.64,SSW,204,0.0,0.0,24,0.00,,---,0.00,VWS V14.00,2013-06-25 18:26:00,
2013-06-25 12:31:00,84.6,41.6,29.64,SSW,192,0.0,3.0,22,0.00,,---,0.00,VWS V14.00,2013-06-25 18:31:00,
2013-06-25 12:37:00,85.1,40.8,29.64,SSE,157,0.0,1.0,21,0.00,,---,0.00,VWS V14.00,2013-06-25 18:37:00,
2013-06-25 12:42:00,85.4,39.8,29.64,SSE,155,0.0,2.0,20,0.00,,---,0.00,VWS V14.00,2013-06-25 18:42:00,
2013-06-25 12:47:00,85.7,41.3,29.63,SE,129,1.0,1.0,21,0.00,,---,0.00,VWS V14.00,2013-06-25 18:47:00,
2013-06-25 12:52:00,85.6,42.4,29.62,SE,146,0.0,1.0,22,0.00,,---,0.00,VWS V14.00,2013-06-25 18:52:00,
2013-06-25 12:57:00,86.2,42.9,29.62,SE,146,0.0,1.0,22,0.00,,---,0.00,VWS V14.00,2013-06-25 18:57:00,
2013-06-25 13:02:00,86.6,50.6,29.62,SE,146,1.0,1.0,29,0.00,,---,0.00,VWS V14.00,2013-06-25 19:02:00,
2013-06-25 13:07:00,86.8,42.2,29.62,South,173,0.0,0.0,21,0.00,,---,0.00,VWS V14.00,2013-06-25 19:07:00,
2013-06-25 13:12:00,87.5,45.2,29.62,SSE,167,0.0,2.0,23,0.00,,---,0.00,VWS V14.00,2013-06-25 19:12:00,
2013-06-25 13:17:00,87.2,46.0,29.63,NE,43,0.0,1.0,24,0.00,,---,0.00,VWS V14.00,2013-06-25 19:17:00,
2013-06-25 13:22:00,87.5,45.2,29.62,NE,42,0.0,1.0,23,0.00,,---,0.00,VWS V14.00,2013-06-25 19:22:00,
2013-06-25 13:27:00,87.2,42.5,29.62,East,82,0.0,0.0,21,0.00,,---,0.00,VWS V14.00,2013-06-25 19:27:00,
2013-06-25 13:32:00,87.1,43.7,29.62,East,86,1.0,1.0,22,0.00,,---,0.00,VWS V14.00,2013-06-25 19:32:00,
2013-06-25 13:37:00,86.9,43.5,29.62,NNE,25,0.0,4.0,22,0.00,,---,0.00,VWS V14.00,2013-06-25 19:37:00,
2013-06-25 13:42:00,87.3,45.0,29.62,NNE,30,0.0,3.0,23,0.00,,---,0.00,VWS V14.00,2013-06-25 19:42:00,
2013-06-25 13:47:00,87.6,45.3,29.61,NNE,29,0.0,1.0,23,0.00,,---,0.00,VWS V14.00,2013-06-25 19:47:00,
2013-06-25 13:52:00,87.6,42.9,29.62,East,88,1.0,1.0,21,0.00,,---,0.00,VWS V14.00,2013-06-25 19:52:00,
2013-06-25 13:57:00,86.6,45.5,29.63,NE,45,1.0,4.0,24,0.00,,---,0.00,VWS V14.00,2013-06-25 19:57:00,
2013-06-25 14:02:00,86.9,47.9,29.62,East,81,0.0,1.0,26,0.00,,---,0.00,VWS V14.00,2013-06-25 20:02:00,
2013-06-25 14:07:00,87.6,42.9,29.61,East,80,1.0,1.0,21,0.00,,---,0.00,VWS V14.00,2013-06-25 20:07:00,
2013-06-25 14:12:00,87.6,48.5,29.61,East,99,0.0,1.0,26,0.00,,---,0.00,VWS V14.00,2013-06-25 20:12:00,
2013-06-25 14:17:00,87.8,46.5,29.61,East,98,1.0,2.0,24,0.00,,---,0.00,VWS V14.00,2013-06-25 20:17:00,
2013-06-25 14:22:00,87.1,39.9,29.62,East,97,0.0,1.0,19,0.00,,---,0.00,VWS V14.00,2013-06-25 20:22:00,
2013-06-25 14:27:00,87.9,43.1,29.61,ESE,104,0.0,4.0,21,0.00,,---,0.00,VWS V14.00,2013-06-25 20:27:00,
2013-06-25 14:32:00,88.4,49.2,29.61,ESE,108,0.0,0.0,26,0.00,,---,0.00,VWS V14.00,2013-06-25 20:32:00,
2013-06-25 14:37:00,88.6,43.7,29.61,ESE,111,1.0,1.0,21,0.00,,---,0.00,VWS V14.00,2013-06-25 20:37:00,
2013-06-25 14:42:00,88.4,43.5,29.61,ESE,113,0.0,1.0,21,0.00,,---,0.00,VWS V14.00,2013-06-25 20:42:00,
2013-06-25 14:47:00,88.2,44.6,29.61,NE,51,0.0,4.0,22,0.00,,---,0.00,VWS V14.00,2013-06-25 20:47:00,
2013-06-25 14:52:00,88.5,47.1,29.61,NE,51,0.0,1.0,24,0.00,,---,0.00,VWS V14.00,2013-06-25 20:52:00,
2013-06-25 14:57:00,88.4,44.8,29.61,NE,51,0.0,1.0,22,0.00,,---,0.00,VWS V14.00,2013-06-25 20:57:00,
2013-06-25 15:02:00,89.4,46.8,29.61,South,189,0.0,0.0,23,0.00,,---,0.00,VWS V14.00,2013-06-25 21:02:00,
2013-06-25 15:07:00,89.2,44.2,29.61,South,169,1.0,1.0,21,0.00,,---,0.00,VWS V14.00,2013-06-25 21:07:00,
2013-06-25 15:12:00,88.8,42.6,29.62,North,360,1.0,2.0,20,0.00,,---,0.00,VWS V14.00,2013-06-25 21:12:00,
2013-06-25 15:17:00,88.6,42.4,29.61,East,82,0.0,1.0,20,0.00,,---,0.00,VWS V14.00,2013-06-25 21:17:00,
2013-06-25 15:22:00,88.7,42.5,29.61,NE,53,0.0,2.0,20,0.00,,---,0.00,VWS V14.00,2013-06-25 21:22:00,
2013-06-25 15:27:00,88.7,41.2,29.61,ENE,63,0.0,1.0,19,0.00,,---,0.00,VWS V14.00,2013-06-25 21:27:00,
2013-06-25 15:33:00,88.6,42.4,29.61,ENE,63,0.0,2.0,20,0.00,,---,0.00,VWS V14.00,2013-06-25 21:33:00,
2013-06-25 15:38:00,88.5,42.3,29.61,East,81,0.0,3.0,20,0.00,,---,0.00,VWS V14.00,2013-06-25 21:38:00,
2013-06-25 15:44:00,87.6,44.1,29.61,NE,38,1.0,2.0,22,0.00,,---,0.00,VWS V14.00,2013-06-25 21:44:00,
2013-06-25 15:49:00,88.6,47.2,29.61,NNE,18,0.0,0.0,24,0.00,,---,0.00,VWS V14.00,2013-06-25 21:49:00,
2013-06-25 15:54:00,89.2,44.2,29.61,NE,52,5.0,5.0,21,0.00,,---,0.00,VWS V14.00,2013-06-25 21:54:00,
2013-06-25 15:59:00,89.0,45.3,29.60,ENE,57,0.0,1.0,22,0.00,,---,0.00,VWS V14.00,2013-06-25 21:59:00,
2013-06-25 16:04:00,88.5,43.6,29.62,NE,44,0.0,1.0,21,0.00,,---,0.00,VWS V14.00,2013-06-25 22:04:00,
2013-06-25 16:10:00,88.8,43.9,29.62,NNE,28,0.0,2.0,21,0.00,,---,0.00,VWS V14.00,2013-06-25 22:10:00,
2013-06-25 16:15:00,88.9,45.2,29.62,NNE,28,0.0,1.0,22,0.00,,---,0.00,VWS V14.00,2013-06-25 22:15:00,
2013-06-25 16:20:00,88.6,43.7,29.62,NE,40,0.0,2.0,21,0.00,,---,0.00,VWS V14.00,2013-06-25 22:20:00,
2013-06-25 16:25:00,88.4,43.5,29.63,NE,40,1.0,1.0,21,0.00,,---,0.00,VWS V14.00,2013-06-25 22:25:00,
2013-06-25 16:30:00,88.7,43.8,29.61,SE,128,0.0,1.0,21,0.00,,---,0.00,VWS V14.00,2013-06-25 22:30:00,
2013-06-25 16:35:00,88.4,43.5,29.62,ESE,106,0.0,4.0,21,0.00,,---,0.00,VWS V14.00,2013-06-25 22:35:00,
2013-06-25 16:40:00,87.5,45.2,29.62,NW,326,0.0,2.0,23,0.00,,---,0.00,VWS V14.00,2013-06-25 22:40:00,
2013-06-25 16:45:00,87.2,46.0,29.62,NNW,327,1.0,1.0,24,0.00,,---,0.00,VWS V14.00,2013-06-25 22:45:00,
2013-06-25 16:50:00,86.3,45.3,29.62,East,87,0.0,0.0,24,0.00,,---,0.00,VWS V14.00,2013-06-25 22:50:00,
2013-06-25 16:55:00,85.8,44.9,29.63,ESE,117,3.0,3.0,24,0.00,,---,0.00,VWS V14.00,2013-06-25 22:55:00,
2013-06-25 17:00:00,85.8,42.6,29.64,NE,36,0.0,1.0,22,0.00,,---,0.00,VWS V14.00,2013-06-25 23:00:00,
2013-06-25 17:05:00,86.2,44.1,29.64,NE,37,0.0,1.0,23,0.00,,---,0.00,VWS V14.00,2013-06-25 23:05:00,
2013-06-25 17:11:00,86.4,44.3,29.64,SSW,196,0.0,1.0,23,0.00,,---,0.00,VWS V14.00,2013-06-25 23:11:00,
2013-06-25 17:16:00,86.5,43.2,29.63,NNW,335,3.0,6.0,22,0.00,,---,0.00,VWS V14.00,2013-06-25 23:16:00,
2013-06-25 17:21:00,86.4,44.3,29.64,NNW,327,1.0,4.0,23,0.00,,---,0.00,VWS V14.00,2013-06-25 23:21:00,
2013-06-25 17:26:00,86.4,44.3,29.64,NNE,26,0.0,1.0,23,0.00,,---,0.00,VWS V14.00,2013-06-25 23:26:00,
2013-06-25 17:32:00,86.8,43.4,29.62,East,83,0.0,3.0,22,0.00,,---,0.00,VWS V14.00,2013-06-25 23:32:00,
2013-06-25 17:38:00,86.8,43.4,29.62,NNW,338,2.0,2.0,22,0.00,,---,0.00,VWS V14.00,2013-06-25 23:38:00,
2013-06-25 17:43:00,86.8,43.4,29.63,ENE,61,0.0,3.0,22,0.00,,---,0.00,VWS V14.00,2013-06-25 23:43:00,
2013-06-25 17:48:00,87.0,43.6,29.63,NE,44,0.0,4.0,22,0.00,,---,0.00,VWS V14.00,2013-06-25 23:48:00,
2013-06-25 17:53:00,86.9,43.5,29.62,East,84,1.0,1.0,22,0.00,,---,0.00,VWS V14.00,2013-06-25 23:53:00,
2013-06-25 17:58:00,86.6,45.5,29.63,East,97,0.0,3.0,24,0.00,,---,0.00,VWS V14.00,2013-06-25 23:58:00,
2013-06-25 18:03:00,85.9,42.7,29.63,NE,55,0.0,0.0,22,0.00,,---,0.00,VWS V14.00,2013-06-26 00:03:00,
2013-06-25 18:08:00,85.5,44.6,29.63,NE,55,0.0,0.0,24,0.00,,---,0.00,VWS V14.00,2013-06-26 00:08:00,
2013-06-25 18:14:00,85.0,43.1,29.64,NE,55,1.0,1.0,23,0.00,,---,0.00,VWS V14.00,2013-06-26 00:14:00,
2013-06-25 18:19:00,84.9,44.1,29.64,NW,326,0.0,0.0,24,0.00,,---,0.00,VWS V14.00,2013-06-26 00:19:00,
2013-06-25 18:24:00,84.8,44.0,29.64,NW,326,0.0,0.0,24,0.00,,---,0.00,VWS V14.00,2013-06-26 00:24:00,
2013-06-25 18:29:00,84.9,44.1,29.64,NW,326,0.0,1.0,24,0.00,,---,0.00,VWS V14.00,2013-06-26 00:29:00,
2013-06-25 18:34:00,85.0,43.1,29.65,NNE,13,0.0,4.0,23,0.00,,---,0.00,VWS V14.00,2013-06-26 00:34:00,
2013-06-25 18:39:00,85.0,41.9,29.65,East,86,2.0,2.0,22,0.00,,---,0.00,VWS V14.00,2013-06-26 00:39:00,
2013-06-25 18:44:00,85.2,43.3,29.65,NE,42,0.0,1.0,23,0.00,,---,0.00,VWS V14.00,2013-06-26 00:44:00,
2013-06-25 18:49:00,85.1,43.2,29.65,NW,321,2.0,3.0,23,0.00,,---,0.00,VWS V14.00,2013-06-26 00:49:00,
2013-06-25 18:54:00,85.3,44.5,29.64,NNE,19,0.0,0.0,24,0.00,,---,0.00,VWS V14.00,2013-06-26 00:54:00,
2013-06-25 18:59:00,85.4,43.4,29.64,NNE,19,0.0,1.0,23,0.00,,---,0.00,VWS V14.00,2013-06-26 00:59:00,
2013-06-25 19:04:00,85.2,43.3,29.61,NW,318,0.0,2.0,23,0.00,,---,0.00,VWS V14.00,2013-06-26 01:04:00,
2013-06-25 19:09:00,85.1,44.3,29.62,NE,36,0.0,1.0,24,0.00,,---,0.00,VWS V14.00,2013-06-26 01:09:00,
2013-06-25 19:14:00,84.9,44.1,29.62,NW,317,0.0,2.0,24,0.00,,---,0.00,VWS V14.00,2013-06-26 01:14:00,
2013-06-25 19:19:00,84.6,43.9,29.62,ESE,103,0.0,1.0,24,0.00,,---,0.00,VWS V14.00,2013-06-26 01:19:00,
2013-06-25 19:24:00,84.4,43.7,29.62,NW,306,0.0,1.0,24,0.00,,---,0.00,VWS V14.00,2013-06-26 01:24:00,
2013-06-25 19:29:00,84.2,43.5,29.62,ENE,61,0.0,2.0,24,0.00,,---,0.00,VWS V14.00,2013-06-26 01:29:00,
2013-06-25 19:34:00,83.9,43.3,29.63,North,10,2.0,2.0,24,0.00,,---,0.00,VWS V14.00,2013-06-26 01:34:00,
2013-06-25 19:39:00,83.8,43.2,29.63,NNE,18,0.0,1.0,24,0.00,,---,0.00,VWS V14.00,2013-06-26 01:39:00,
2013-06-25 19:44:00,83.4,43.9,29.63,NNE,23,0.0,0.0,25,0.00,,---,0.00,VWS V14.00,2013-06-26 01:44:00,
2013-06-25 19:49:00,82.8,44.5,29.64,NNE,23,0.0,0.0,26,0.00,,---,0.00,VWS V14.00,2013-06-26 01:49:00,
2013-06-25 19:54:00,82.6,43.2,29.65,North,5,0.0,1.0,25,0.00,,---,0.00,VWS V14.00,2013-06-26 01:54:00,
2013-06-25 19:59:00,82.3,43.0,29.64,North,360,0.0,0.0,25,0.00,,---,0.00,VWS V14.00,2013-06-26 01:59:00,
2013-06-25 20:04:00,82.1,43.8,29.65,ENE,63,1.0,5.0,26,0.00,,---,0.00,VWS V14.00,2013-06-26 02:04:00,
2013-06-25 20:09:00,81.9,44.7,29.65,ENE,65,0.0,0.0,27,0.00,,---,0.00,VWS V14.00,2013-06-26 02:09:00,
2013-06-25 20:10:00,81.8,43.6,29.65,ENE,65,0.0,1.0,26,0.00,,---,0.00,VWS V14.00,2013-06-26 02:10:00,
2013-06-25 20:15:00,81.5,43.3,29.65,WNW,298,0.0,1.0,26,0.00,,---,0.00,VWS V14.00,2013-06-26 02:15:00,
2013-06-25 20:20:00,81.3,43.2,29.66,WNW,298,0.0,0.0,26,0.00,,---,0.00,VWS V14.00,2013-06-26 02:20:00,
2013-06-25 20:25:00,81.1,43.0,29.66,NE,50,0.0,0.0,26,0.00,,---,0.00,VWS V14.00,2013-06-26 02:25:00,
2013-06-25 20:30:00,80.8,43.7,29.66,NE,50,0.0,0.0,27,0.00,,---,0.00,VWS V14.00,2013-06-26 02:30:00,
2013-06-25 20:35:00,80.5,43.5,29.66,ENE,71,0.0,1.0,27,0.00,,---,0.00,VWS V14.00,2013-06-26 02:35:00,
2013-06-25 20:40:00,80.2,43.2,29.68,ENE,71,0.0,0.0,27,0.00,,---,0.00,VWS V14.00,2013-06-26 02:40:00,
2013-06-25 20:45:00,79.8,44.8,29.67,ENE,71,0.0,0.0,29,0.00,,---,0.00,VWS V14.00,2013-06-26 02:45:00,
2013-06-25 20:50:00,79.4,43.5,29.68,ENE,71,0.0,1.0,28,0.00,,---,0.00,VWS V14.00,2013-06-26 02:50:00,
2013-06-25 20:55:00,79.1,43.2,29.68,East,95,0.0,0.0,28,0.00,,---,0.00,VWS V14.00,2013-06-26 02:55:00,
2013-06-25 21:00:00,78.7,43.8,29.68,East,96,0.0,1.0,29,0.00,,---,0.00,VWS V14.00,2013-06-26 03:00:00,
2013-06-25 21:05:00,78.6,43.7,29.66,East,94,0.0,1.0,29,0.00,,---,0.00,VWS V14.00,2013-06-26 03:05:00,
2013-06-25 21:10:00,78.3,43.5,29.67,East,94,0.0,0.0,29,0.00,,---,0.00,VWS V14.00,2013-06-26 03:10:00,
2013-06-25 21:15:00,78.0,43.2,29.67,East,94,0.0,1.0,29,0.00,,---,0.00,VWS V14.00,2013-06-26 03:15:00,
2013-06-25 21:20:00,77.8,43.0,29.67,East,95,0.0,0.0,29,0.00,,---,0.00,VWS V14.00,2013-06-26 03:20:00,
2013-06-25 21:25:00,77.6,42.9,29.67,East,94,0.0,0.0,29,0.00,,---,0.00,VWS V14.00,2013-06-26 03:25:00,
2013-06-25 21:31:00,77.3,42.6,29.69,East,94,0.0,0.0,29,0.00,,---,0.00,VWS V14.00,2013-06-26 03:31:00,
2013-06-25 21:36:00,77.2,42.5,29.69,East,94,0.0,0.0,29,0.00,,---,0.00,VWS V14.00,2013-06-26 03:36:00,
2013-06-25 21:41:00,77.0,43.2,29.70,East,95,0.0,0.0,30,0.00,,---,0.00,VWS V14.00,2013-06-26 03:41:00,
2013-06-25 21:46:00,76.8,43.0,29.70,East,95,0.0,0.0,30,0.00,,---,0.00,VWS V14.00,2013-06-26 03:46:00,
2013-06-25 21:51:00,76.5,42.8,29.70,East,94,0.0,0.0,30,0.00,,---,0.00,VWS V14.00,2013-06-26 03:51:00,
2013-06-25 21:56:00,76.2,43.4,29.71,East,94,0.0,0.0,31,0.00,,---,0.00,VWS V14.00,2013-06-26 03:56:00,
2013-06-25 22:10:00,75.5,43.6,29.69,North,0,0.0,0.0,32,0.00,,---,0.00,VWS V14.00,2013-06-26 04:10:00,
2013-06-25 22:13:00,75.2,43.3,29.70,East,94,0.0,0.0,32,0.00,,---,0.00,VWS V14.00,2013-06-26 04:13:00,
2013-06-25 22:14:00,75.1,43.3,29.70,East,94,0.0,0.0,32,0.00,,---,0.00,VWS V14.00,2013-06-26 04:14:00,
2013-06-25 22:15:00,75.1,43.3,29.70,East,94,0.0,0.0,32,0.00,,---,0.00,VWS V14.00,2013-06-26 04:15:00,
2013-06-25 22:21:00,74.8,43.8,29.71,East,94,0.0,0.0,33,0.00,,---,0.00,VWS V14.00,2013-06-26 04:21:00,
2013-06-25 22:26:00,74.3,44.1,29.71,East,94,0.0,0.0,34,0.00,,---,0.00,VWS V14.00,2013-06-26 04:26:00,
2013-06-25 22:31:00,73.5,44.2,29.72,East,95,0.0,0.0,35,0.00,,---,0.00,VWS V14.00,2013-06-26 04:31:00,
2013-06-25 22:36:00,72.8,44.3,29.73,East,95,0.0,0.0,36,0.00,,---,0.00,VWS V14.00,2013-06-26 04:36:00,
2013-06-25 22:41:00,72.4,44.0,29.73,East,94,0.0,0.0,36,0.00,,---,0.00,VWS V14.00,2013-06-26 04:41:00,
2013-06-25 22:47:00,72.1,44.4,29.73,East,95,0.0,0.0,37,0.00,,---,0.00,VWS V14.00,2013-06-26 04:47:00,
2013-06-25 22:52:00,71.7,44.8,29.73,East,94,0.0,0.0,38,0.00,,---,0.00,VWS V14.00,2013-06-26 04:52:00,
2013-06-25 22:57:00,71.5,44.6,29.73,East,95,0.0,0.0,38,0.00,,---,0.00,VWS V14.00,2013-06-26 04:57:00,
2013-06-25 23:02:00,71.3,43.7,29.74,East,94,0.0,0.0,37,0.00,,---,0.00,VWS V14.00,2013-06-26 05:02:00,
2013-06-25 23:07:00,71.0,44.1,29.72,East,95,0.0,0.0,38,0.00,,---,0.00,VWS V14.00,2013-06-26 05:07:00,
2013-06-25 23:12:00,70.9,44.0,29.72,East,95,0.0,0.0,38,0.00,,---,0.00,VWS V14.00,2013-06-26 05:12:00,
2013-06-25 23:17:00,70.8,44.6,29.72,East,94,0.0,0.0,39,0.00,,---,0.00,VWS V14.00,2013-06-26 05:17:00,
2013-06-25 23:22:00,70.7,44.5,29.72,East,95,0.0,0.0,39,0.00,,---,0.00,VWS V14.00,2013-06-26 05:22:00,
2013-06-25 23:27:00,70.6,45.1,29.71,East,94,0.0,0.0,40,0.00,,---,0.00,VWS V14.00,2013-06-26 05:27:00,
2013-06-25 23:32:00,70.4,45.0,29.71,East,94,0.0,0.0,40,0.00,,---,0.00,VWS V14.00,2013-06-26 05:32:00,
2013-06-25 23:37:00,70.2,44.8,29.71,East,95,0.0,0.0,40,0.00,,---,0.00,VWS V14.00,2013-06-26 05:37:00,
2013-06-25 23:42:00,70.0,44.6,29.72,East,94,0.0,0.0,40,0.00,,---,0.00,VWS V14.00,2013-06-26 05:42:00,
2013-06-25 23:47:00,69.8,45.7,29.72,East,94,0.0,0.0,42,0.00,,---,0.00,VWS V14.00,2013-06-26 05:47:00,
2013-06-25 23:52:00,69.2,45.2,29.73,East,94,0.0,0.0,42,0.00,,---,0.00,VWS V14.00,2013-06-26 05:52:00,
2013-06-25 23:57:00,68.9,45.5,29.73,East,94,0.0,0.0,43,0.00,,---,0.00,VWS V14.00,2013-06-26 05:57:00,